[[{"header":{"parameterUnit":"m.s-1","parameterCategory":1,"la1":30.2991,"la2":30.254,"lo1":-89.0895,"lo2":-89.0444,"dy":0.0017,"dx":0.0017,"nx":28,"ny":28,"refTime":"2024-05-26T21:00:00:Z","depth":0,"parameterNumber":2,"parameterNumberName":"U-component_of_WINDS"},"data":[0,0,0,0,0,0,0,0,0,0,0,0,0,0,0,0,0,0,0,0,0,0,0,0,0,0,0,0,0,0,0,0,0,0,0,0,0,0,0,0,0,0,0,0,0,0,0,0,0,0,0,0,0,0,0,0,0,0,2.0678,2.0678,0,2.0698,2.0698,2.0698,2.0652,2.065,2.0649,2.0648,2.0669,2.0671,2.0673,0,0,0,0,0,0,0,0,0,0,0,0,0,2.0602,2.0604,2.0678,2.0678,2.0678,2.0697,2.0698,2.0698,2.0652,2.065,2.0649,2.0647,2.0669,2.0671,2.0673,0,0,0,0,0,0,0,0,0,0,0,0,0,2.063,2.0604,2.0678,2.0658,2.0656,2.0697,2.0698,2.0698,2.0653,2.065,2.0648,2.0646,2.0668,2.0671,2.0674,2.0736,0,0,2.0683,2.0684,0,0,0,0,0,0,0,0,2.0628,2.0633,2.066,2.0659,2.0657,2.067,2.0679,2.0711,2.0653,2.0654,2.0648,2.0645,2.0672,2.0674,2.0683,2.0737,2.0738,2.0683,2.0685,2.0686,2.0687,0,0,0,0,0,0,0,2.0627,2.0632,2.0685,2.0661,2.0659,2.0648,2.065,2.0685,2.0675,2.0654,2.065,2.0653,2.067,2.068,2.0683,2.0738,2.0683,2.0685,2.0687,2.0688,2.0846,2.0848,0,0,0,0,0,0,2.0627,2.063,2.0685,2.0686,2.0637,2.0652,2.0653,2.0668,2.0674,2.0673,2.0655,2.0651,2.0676,2.0679,2.0683,2.0757,2.0686,2.0689,2.069,2.0843,2.0846,2.0849,0,0,0,0,0,0,2.0625,2.0632,2.0684,2.0657,2.0663,2.0655,2.0672,2.067,2.0679,2.0675,2.0674,2.0667,2.0674,2.0679,2.0723,2.0757,2.069,2.0693,2.0841,2.0844,2.0848,2.0904,0,0,0,0,0,0,2.0624,2.0632,2.0655,2.0658,2.0665,2.0723,2.0674,2.0672,2.0684,2.0679,2.0686,2.0685,2.0673,2.0719,2.0726,2.076,2.0695,2.0838,2.0842,2.0847,2.0899,2.0909,2.0918,0,0,0,0,0,2.0621,2.067,2.0656,2.0663,2.0693,2.0725,2.0729,2.0714,2.0687,2.071,2.0708,2.0685,2.0753,2.0724,2.0732,2.0766,2.0835,2.0841,2.0846,2.0895,2.0907,2.0918,0,0,0,0,0,0,2.0671,2.067,2.0655,2.0706,2.0716,2.0717,2.0746,2.0727,2.0745,2.074,2.0721,2.0723,2.0771,2.0773,2.0742,2.0828,2.0789,2.0797,2.0824,2.0836,2.0845,2.0843,2.0697,0,0,0,0,0,2.0688,2.0713,2.0711,2.0757,2.0763,2.0754,2.0767,2.0755,2.0765,2.0769,2.077,2.0781,2.0804,2.082,2.0842,2.09,2.0901,2.0928,2.0937,2.0945,2.0951,2.0982,2.0994,2.0867,2.0867,2.0867,0,0,2.0723,2.0726,2.0743,2.0767,2.0773,2.0801,2.0758,2.0788,2.0809,2.0773,2.0815,2.0816,2.0827,2.0879,2.0902,2.0882,2.0987,2.0952,2.0958,2.096,2.0989,2.1001,2.1012,2.0871,2.087,2.0869,0,0,2.0801,2.0805,2.0844,2.0852,2.0862,2.0856,2.0865,2.087,2.0869,2.0911,2.0885,2.091,2.0951,2.096,2.097,2.1054,2.1033,2.1062,2.111,2.1141,2.1151,2.1159,2.1189,2.12,2.1068,2.1068,2.1068,0,2.0843,2.0883,2.0866,2.0899,2.0911,2.0881,2.092,2.0929,2.0946,2.0955,2.0933,2.0985,2.099,2.1044,2.1064,2.1073,2.1084,2.106,2.115,2.1159,2.1167,2.1195,2.1206,2.1071,2.1071,2.1071,2.107,0,2.0934,2.0963,2.0993,2.101,2.1025,2.1061,2.1051,2.1069,2.1057,2.1053,2.1097,2.1102,2.1125,2.1137,2.1125,2.1189,2.1177,2.1153,2.1114,2.1183,2.1209,2.122,2.1076,2.1075,2.1074,2.1073,0,0,2.1042,2.1051,2.1062,2.107,2.108,2.1102,2.1137,2.1159,2.1175,2.1189,2.1218,2.1254,2.1233,2.1245,2.1233,2.1261,2.1327,2.1234,2.1234,2.1251,2.1399,2.1415,2.1428,2.1314,2.1316,2.1317,2.1398,0,2.1119,2.1179,2.1166,2.1225,2.1252,2.1225,2.1256,2.1266,2.1264,2.1287,2.1285,2.1311,2.1281,2.1288,2.1314,2.1313,2.1356,2.1308,2.1341,2.1343,2.1338,2.1442,2.146,2.1535,2.1408,2.1409,2.1411,0,2.1216,2.1233,2.1295,2.1301,2.1312,2.134,2.136,2.1382,2.1393,2.139,2.1404,2.1388,2.1424,2.1386,2.1436,2.1403,2.1417,2.1419,2.1421,2.1423,2.138,2.1446,2.1558,2.1569,2.1427,2.1425,2.1424,0,2.1287,2.1326,2.1368,2.1376,2.1385,2.1406,2.141,2.142,2.1434,2.1452,2.1461,2.1483,2.1495,2.1513,2.1504,2.1477,2.1556,2.1517,2.1554,2.1555,2.1571,2.157,2.1686,2.1581,2.1581,2.1581,2.1581,0,2.1374,2.1413,2.1401,2.1427,2.147,2.1456,2.1499,2.1501,2.151,2.1536,2.1515,2.154,2.1527,2.1552,2.1545,2.1588,2.1594,2.1592,2.159,2.1594,2.1594,2.1601,2.1595,2.1584,2.1583,2.1583,2.1582,0,2.146,2.1454,2.1498,2.1504,2.1506,2.1538,2.1543,2.1567,2.1565,2.1599,2.1606,2.1602,2.163,2.1624,2.1654,2.165,2.1703,2.1695,2.1699,2.1697,2.1735,2.1731,2.1859,2.1876,2.1761,2.1762,2.1763,0,2.1515,2.1545,2.1554,2.157,2.1576,2.1602,2.1617,2.1605,2.1622,2.1638,2.1661,2.1687,2.1707,2.1754,2.1754,2.1778,2.1769,2.1813,2.1772,2.1775,2.1769,2.1767,2.177,2.182,2.1821,2.1823,2.1823,0,2.1613,2.1609,2.1631,2.1653,2.1671,2.1687,2.1702,2.1716,2.1706,2.1726,2.1754,2.177,2.1801,2.1828,2.185,2.1856,2.1838,2.1836,2.1846,2.185,2.1851,2.185,2.172,2.1833,2.1832,2.1831,2.1831,2.183,2.1685,2.171,2.1721,2.1746,2.1756,2.1771,2.1794,2.1795,2.1818,2.1843,2.1835,2.1868,2.188,2.1908,2.1916,2.1942,2.1926,2.194,2.1944,2.1947,2.1952,2.1848,2.1946,2.1946,2.1946,2.1946,2.1945,0,2.1782,2.1787,2.1811,2.1832,2.1853,2.1835,2.185,2.1869,2.1898,2.191,2.1931,2.1964,2.199,2.1993,2.2018,2.2038,2.2031,2.2045,2.2043,2.2045,2.1965,2.1954,2.2051,2.2051,2.2051,2.2051,2.2051,2.2051,2.1834,2.1875,2.1873,2.192,2.1925,2.1957,2.1967,2.1981,2.1991,2.2029,2.205,2.2052,2.2062,2.2087,2.2111,2.2111,2.2121,2.2138,2.2135,2.2061,2.205,2.204,2.2029,2.214,2.2141,2.2212,2.2213,2.2214]},{"header":{"parameterUnit":"m.s-1","parameterCategory":1,"la1":30.2991,"la2":30.254,"lo1":-89.0895,"lo2":-89.0444,"dy":0.0017,"dx":0.0017,"nx":28,"ny":28,"refTime":"2024-05-26T21:00:00:Z","depth":0,"parameterNumber":3,"parameterNumberName":"V-component_of_WINDS"},"data":[0,0,0,0,0,0,0,0,0,0,0,0,0,0,0,0,0,0,0,0,0,0,0,0,0,0,0,0,0,0,0,0,0,0,0,0,0,0,0,0,0,0,0,0,0,0,0,0,0,0,0,0,0,0,0,0,0,0,1.3673,1.3673,0,1.3705,1.3705,1.3706,1.37,1.3699,1.3699,1.3698,1.373,1.3731,1.3733,0,0,0,0,0,0,0,0,0,0,0,0,0,1.3605,1.3606,1.3673,1.3673,1.3674,1.3705,1.3705,1.3706,1.37,1.3699,1.3698,1.3698,1.373,1.3731,1.3733,0,0,0,0,0,0,0,0,0,0,0,0,0,1.3635,1.3606,1.3673,1.3674,1.3675,1.3705,1.3705,1.3706,1.37,1.3699,1.3698,1.3697,1.3729,1.3731,1.3733,1.3763,0,0,1.3739,1.374,0,0,0,0,0,0,0,0,1.3633,1.3638,1.3674,1.3674,1.3675,1.3697,1.3693,1.3725,1.37,1.369,1.3698,1.3697,1.372,1.3723,1.373,1.3765,1.3766,1.374,1.3741,1.3742,1.3742,0,0,0,0,0,0,0,1.3631,1.3636,1.3686,1.3674,1.3675,1.3673,1.3676,1.3699,1.371,1.3691,1.3691,1.3695,1.372,1.3728,1.3731,1.3766,1.374,1.3741,1.3743,1.3743,1.3825,1.3826,0,0,0,0,0,0,1.3629,1.3635,1.3685,1.3687,1.3652,1.3675,1.3679,1.3691,1.3709,1.3711,1.3695,1.3694,1.3725,1.3729,1.3732,1.3768,1.3742,1.3744,1.3745,1.3824,1.3825,1.3826,0,0,0,0,0,0,1.3627,1.3633,1.3683,1.366,1.3667,1.3677,1.3691,1.3692,1.3701,1.3712,1.3714,1.3702,1.3725,1.3729,1.3755,1.3769,1.3745,1.3747,1.3823,1.3824,1.3826,1.3839,0,0,0,0,0,0,1.3626,1.3633,1.3645,1.3661,1.3668,1.3706,1.3692,1.3693,1.3704,1.3703,1.3719,1.3721,1.3724,1.3752,1.3757,1.3771,1.3748,1.3822,1.3824,1.3825,1.3837,1.3841,1.3843,0,0,0,0,0,1.3623,1.3648,1.3646,1.3652,1.3683,1.3707,1.3711,1.3715,1.3706,1.3717,1.3725,1.3721,1.3766,1.3755,1.3761,1.3775,1.3821,1.3823,1.3825,1.3836,1.384,1.3843,0,0,0,0,0,0,1.3634,1.365,1.3648,1.3678,1.3691,1.3706,1.3721,1.3719,1.3735,1.3733,1.3736,1.374,1.3766,1.3773,1.376,1.3804,1.3792,1.3796,1.3799,1.3803,1.3805,1.3803,1.375,0,0,0,0,0,1.3639,1.3658,1.3671,1.3697,1.3703,1.3711,1.3722,1.3723,1.3736,1.3742,1.3751,1.3764,1.3781,1.3792,1.3809,1.3838,1.3841,1.3851,1.3854,1.3857,1.3859,1.3874,1.3878,1.3833,1.3833,1.3833,0,0,1.3652,1.3663,1.3674,1.3699,1.3709,1.3727,1.3716,1.3736,1.3749,1.3745,1.377,1.3777,1.3791,1.3818,1.3831,1.3825,1.3872,1.3859,1.3861,1.3862,1.3877,1.3881,1.3885,1.3834,1.3834,1.3834,0,0,1.3683,1.3694,1.3716,1.3726,1.3742,1.3746,1.3752,1.3766,1.3771,1.3796,1.3792,1.3808,1.3837,1.3847,1.3856,1.389,1.3886,1.3895,1.3911,1.3925,1.3929,1.3932,1.3943,1.3947,1.3898,1.3898,1.3898,0,1.3697,1.3725,1.3728,1.3748,1.3758,1.3754,1.3776,1.3786,1.3806,1.3812,1.3806,1.3842,1.3851,1.3881,1.3889,1.3896,1.3901,1.3893,1.3928,1.3931,1.3934,1.3945,1.3949,1.3899,1.3899,1.3899,1.3898,0,1.3739,1.3759,1.3774,1.3793,1.3805,1.3826,1.3831,1.3843,1.3843,1.3848,1.3873,1.3884,1.3902,1.3909,1.3909,1.3938,1.3933,1.3927,1.3915,1.3939,1.3949,1.3953,1.39,1.39,1.3899,1.3899,0,0,1.378,1.3799,1.3805,1.3812,1.3828,1.3843,1.3863,1.388,1.389,1.3903,1.3919,1.3944,1.3938,1.3948,1.3949,1.3962,1.3986,1.3954,1.3955,1.3959,1.4017,1.4021,1.4025,1.3984,1.3985,1.3985,1.4015,0,1.3812,1.3848,1.385,1.3882,1.3899,1.3895,1.3912,1.3923,1.3928,1.3943,1.3948,1.3965,1.3956,1.3962,1.3975,1.3981,1.3998,1.3979,1.3998,1.3999,1.3994,1.4031,1.4036,1.4063,1.4019,1.402,1.402,0,1.3855,1.3869,1.3903,1.3915,1.3922,1.3937,1.3953,1.3967,1.3979,1.3982,1.3992,1.3991,1.401,1.3998,1.4024,1.401,1.4018,1.4022,1.4024,1.4025,1.4011,1.4033,1.4072,1.4076,1.4027,1.4026,1.4026,0,1.388,1.3907,1.393,1.3937,1.3952,1.3963,1.397,1.3981,1.3991,1.4004,1.401,1.4025,1.4034,1.4045,1.4048,1.4039,1.4073,1.4061,1.4075,1.4075,1.4083,1.4082,1.4124,1.4089,1.4089,1.4089,1.4089,0,1.3915,1.3936,1.3941,1.3956,1.3978,1.398,1.4001,1.4007,1.4017,1.4032,1.4029,1.4043,1.4046,1.406,1.4062,1.4083,1.4087,1.4088,1.4089,1.4089,1.4088,1.4094,1.4092,1.409,1.409,1.4089,1.4089,0,1.3947,1.3952,1.3976,1.3988,1.3991,1.4007,1.4017,1.403,1.4034,1.4053,1.4057,1.4063,1.408,1.4083,1.4103,1.4104,1.4128,1.4127,1.4124,1.4124,1.4138,1.4136,1.4183,1.4189,1.4151,1.4152,1.4152,0,1.3969,1.3985,1.3998,1.4007,1.4014,1.403,1.404,1.4042,1.4052,1.4066,1.4077,1.4093,1.4106,1.4131,1.4137,1.4152,1.415,1.4166,1.4153,1.4151,1.415,1.4149,1.415,1.4169,1.4169,1.4169,1.417,0,1.4008,1.4009,1.4024,1.4038,1.405,1.4062,1.4073,1.4081,1.4084,1.4096,1.4112,1.4122,1.4141,1.4156,1.417,1.4176,1.4173,1.4174,1.4178,1.4177,1.4175,1.4175,1.413,1.4173,1.4172,1.4172,1.4172,1.4172,1.4035,1.4048,1.4059,1.4075,1.4083,1.4093,1.4106,1.4111,1.4125,1.4141,1.4141,1.4158,1.4168,1.4187,1.4194,1.4207,1.4202,1.4208,1.4209,1.4211,1.4212,1.4173,1.421,1.421,1.4209,1.4209,1.4209,0,1.4073,1.408,1.4094,1.4109,1.4121,1.4117,1.4129,1.4139,1.4154,1.4164,1.4176,1.4194,1.4209,1.4216,1.423,1.4239,1.4238,1.4242,1.4241,1.4243,1.4216,1.421,1.4243,1.4243,1.4243,1.4243,1.4243,1.4243,1.4094,1.4116,1.4118,1.4143,1.4149,1.4166,1.4173,1.4182,1.4189,1.421,1.4222,1.4226,1.4234,1.4248,1.4261,1.4263,1.4268,1.4273,1.4274,1.4248,1.4245,1.4241,1.4237,1.4274,1.4274,1.43,1.43,1.43]}]]